This is the latest recevied weather packets stored in our database for station/object WA1OUI. If no packets are shown the sender has not sent any weather packets the latest 1 day(s).
| Time | Temp. | Humidity | Pressure | Rain* | Wind** | Luminosity | Snow |
|---|---|---|---|---|---|---|---|
| 1778029103 | 17.22° C | 67% | 1007.5 hPa | 0 mm | - | 0 W/m² | - |
| 1778028800 | 17.22° C | 67% | 1007.5 hPa | 0 mm | - | 0 W/m² | - |
| 1778028496 | 17.78° C | 66% | 1007.4 hPa | 0 mm | - | 0 W/m² | - |
| 1778028193 | 17.78° C | 65% | 1007.3 hPa | 0 mm | - | 0 W/m² | - |
| 1778027889 | 17.78° C | 64% | 1007.2 hPa | 0 mm | - | 0 W/m² | - |
| 1778027586 | 18.33° C | 64% | 1007.3 hPa | 0 mm | - | 0 W/m² | - |
| 1778027282 | 18.33° C | 63% | 1007.2 hPa | 0 mm | - | 0 W/m² | - |
| 1778026372 | 18.89° C | 62% | 1006.8 hPa | 0 mm | - | 0 W/m² | - |
| 1778026069 | 18.89° C | 61% | 1006.7 hPa | 0 mm | - | 0 W/m² | - |
| 1778024857 | 20° C | 58% | 1006.5 hPa | 0 mm | - | 2 W/m² | - |
| 1778023950 | 20.56° C | 56% | 1006.3 hPa | 0 mm | - | 7 W/m² | - |
| 1778021830 | 21.11° C | 53% | 1006.1 hPa | 0 mm | - | 22 W/m² | - |
| 1778020618 | 21.67° C | 53% | 1005.5 hPa | 0 mm | - | 33 W/m² | - |
| 1778019706 | 21.67° C | 53% | 1005.4 hPa | 0 mm | - | 35 W/m² | - |
| 1778018495 | 22.22° C | 51% | 1005.4 hPa | 0 mm | - | 40 W/m² | - |
| 1778017588 | 22.78° C | 50% | 1005.4 hPa | 0 mm | - | 54 W/m² | - |
| 1778017285 | 22.78° C | 49% | 1005.5 hPa | 0 mm | - | 51 W/m² | - |
| 1778016375 | 23.89° C | 49% | 1005.2 hPa | 0 mm | - | 71 W/m² | - |
| 1778016073 | 23.89° C | 48% | 1005.4 hPa | 0 mm | - | 82 W/m² | - |
| 1778015163 | 24.44° C | 46% | 1005.4 hPa | 0 mm | - | 113 W/m² | - |
| 1778014558 | 24.44° C | 46% | 1005.3 hPa | 0 mm | - | 127 W/m² | - |
| 1778013346 | 25.56° C | 44% | 1005.2 hPa | 0 mm | - | 230 W/m² | - |
| 1778012435 | 26.67° C | 43% | 1005.2 hPa | 0 mm | - | 307 W/m² | - |
| 1778011830 | 26.67° C | 42% | 1005.1 hPa | 0 mm | - | 363 W/m² | - |
| 1778010316 | 26.67° C | 40% | 1005.3 hPa | 0 mm | - | 467 W/m² | - |
* Rain latest hour (hover to see other rain measurements)
** Current wind speed in m/s (hover to see current wind gust speed)